This is the latest recevied weather packets stored in our database for station/object DO6DD-13. If no packets are shown the sender has not sent any weather packets the latest 10 day(s).
| Time | Temp. | Humidity | Pressure | Rain* | Wind** | Luminosity | Snow |
|---|---|---|---|---|---|---|---|
| 1777932016 | 13.33° C | 95% | 1013 hPa | - | - | 2 W/m² | - |
| 1777931415 | 13.33° C | 94% | 1013 hPa | - | - | 2 W/m² | - |
| 1777930815 | 13.33° C | 94% | 1013.1 hPa | - | - | 2 W/m² | - |
| 1777930224 | 13.89° C | 94% | 1013.2 hPa | - | - | 2 W/m² | - |
| 1777929624 | 13.89° C | 94% | 1013.3 hPa | - | - | 2 W/m² | - |
| 1777929023 | 13.89° C | 94% | 1013.3 hPa | - | - | 2 W/m² | - |
| 1777928423 | 14.44° C | 94% | 1013.3 hPa | - | - | 2 W/m² | - |
| 1777927822 | 14.44° C | 94% | 1013.3 hPa | - | - | 2 W/m² | - |
| 1777927222 | 13.89° C | 93% | 1013.2 hPa | - | - | 2 W/m² | - |
| 1777926621 | 13.89° C | 93% | 1013.3 hPa | - | - | 2 W/m² | - |
| 1777926021 | 13.89° C | 92% | 1013.3 hPa | - | - | 2 W/m² | - |
| 1777925420 | 14.44° C | 91% | 1013.4 hPa | - | - | 2 W/m² | - |
| 1777924820 | 14.44° C | 90% | 1013.3 hPa | - | - | 2 W/m² | - |
| 1777924219 | 15° C | 89% | 1013.3 hPa | - | - | 2 W/m² | - |
| 1777923619 | 15.56° C | 88% | 1013.3 hPa | - | - | 2 W/m² | - |
| 1777923018 | 16.11° C | 86% | 1012.8 hPa | - | - | 2 W/m² | - |
| 1777922418 | 16.11° C | 84% | 1012.6 hPa | - | - | 2 W/m² | - |
| 1777921818 | 16.67° C | 82% | 1012.6 hPa | - | - | 2 W/m² | - |
| 1777921217 | 16.67° C | 80% | 1012.6 hPa | - | - | 2 W/m² | - |
| 1777920617 | 17.22° C | 77% | 1012.5 hPa | - | - | 4 W/m² | - |
| 1777920016 | 17.22° C | 76% | 1012.6 hPa | - | - | 4 W/m² | - |
| 1777919416 | 17.78° C | 75% | 1012.5 hPa | - | - | 6 W/m² | - |
| 1777918815 | 17.78° C | 75% | 1012.5 hPa | - | - | 12 W/m² | - |
| 1777918215 | 17.78° C | 75% | 1012.5 hPa | - | - | 12 W/m² | - |
| 1777917624 | 17.78° C | 74% | 1012.5 hPa | - | - | 14 W/m² | - |
* Rain since midnight (hover to see other rain measurements)
** Current wind speed in m/s (hover to see current wind gust speed)